Wind_Speed
105 106 106 107 106 105 105 104 104 104 105 106 102 97 92 90 91 92 86 82 80 81 80 80 78 73 66 68 69 69 69 72 70 73 78 81 86 85 87 85 82 80 78
109 109 109 109 108 105 104 104 104 103 99 94 90 88 85 84 84 83 80 78 76 75 72 67 65 63 59 59 59 62 65 64 62 61 64 67 70 72 75 75 75 77 80
112 111 110 108 106 104 102 100 97 92 90 87 82 79 79 78 77 79 76 71 67 62 58 55 53 49 51 52 53 55 55 55 52 52 54 57 60 62 64 64 65 64 70
111 109 107 104 101 95 92 91 90 86 82 80 79 74 75 72 75 72 67 62 58 55 52 50 48 45 43 40 43 45 44 45 43 43 43 46 49 53 55 56 56 57 61
100 97 95 92 88 88 89 87 86 84 81 79 73 70 66 68 69 62 59 55 53 53 49 47 45 42 37 36 37 37 36 36 35 34 35 36 39 43 46 48 53 55 63
90 90 89 87 85 83 82 81 80 78 73 69 64 62 60 62 59 55 53 52 50 46 42 36 37 35 33 34 34 32 31 30 29 28 25 25 28 31 35 41 47 52 57
72 72 72 73 73 74 74 71 70 68 64 62 60 59 57 54 51 50 48 43 44 45 39 33 26 27 26 24 26 26 27 24 22 19 18 17 19 21 23 27 34 42 50
57 59 60 62 63 64 62 59 56 51 47 44 44 44 44 44 45 41 40 43 45 42 38 32 24 19 19 18 16 16 13 11 8 9 13 17 18 19 22 25 26 33 37
45 47 48 48 47 42 40 40 39 35 33 34 33 34 35 37 36 38 40 42 41 34 26 18 14 18 17 11 8 5 4 4 7 8 15 15 18 21 22 23 24 27 32
27 27 28 27 26 23 22 20 20 22 25 26 27 28 27 28 32 35 35 30 21 14 9 13 17 19 14 11 11 10 7 5 5 11 13 12 13 15 18 19 21 32 38
15 16 15 17 17 17 17 17 18 17 19 21 21 20 22 24 23 19 15 8 9 14 17 20 20 20 16 17 15 13 14 13 9 11 13 6 4 8 12 14 18 21 32
9 11 11 10 9 8 9 11 15 18 20 17 14 15 15 8 7 7 10 16 21 24 21 21 22 20 19 16 16 17 17 14 10 16 16 11 8 8 8 9 13 16 17
6 7 9 7 6 7 9 12 12 12 11 11 11 8 7 11 10 21 27 28 26 25 24 24 22 17 15 13 12 14 19 14 13 17 20 18 15 17 18 18 18 19 27
4 6 5 3 6 8 8 8 10 9 5 5 9 11 17 28 38 32 32 30 28 25 22 19 15 12 9 6 9 15 17 16 19 23 26 24 24 25 28 30 33 36 39
2 1 2 3 4 4 2 3 7 11 16 19 25 36 40 38 36 35 33 30 26 22 19 15 13 12 9 10 12 17 18 18 26 27 30 33 34 35 37 38 40 42 46
9 11 14 15 15 16 20 24 27 30 36 42 44 41 39 37 38 33 27 23 18 14 11 9 11 11 8 11 14 16 22 28 31 29 34 37 39 39 36 36 39 40 41
24 29 34 34 36 39 46 49 52 51 48 44 41 38 36 33 29 23 18 15 14 13 13 8 4 2 7 8 11 15 19 24 27 27 27 29 28 25 24 26 28 29 29
53 55 56 55 57 59 59 57 54 50 49 48 44 41 39 36 32 30 26 21 15 14 11 5 3 6 12 15 17 21 24 28 31 33 36 38 40 41 42 43 46 47 47
70 70 69 68 67 65 63 61 57 54 50 47 42 38 34 30 25 22 18 14 10 6 3 5 10 14 18 21 25 30 33 37 39 42 45 47 49 51 53 55 52 48 45
69 68 66 64 61 57 54 49 46 41 38 35 31 27 24 21 17 12 9 6 6 8 11 15 19 23 27 31 34 38 42 46 49 52 55 57 57 55 51 47 45 40 37
61 58 54 51 48 45 42 38 35 31 27 22 20 18 15 11 7 4 4 8 12 16 21 24 28 31 35 39 43 47 49 51 51 52 52 51 52 51 47 42 40 37 36
52 48 45 43 40 37 35 31 26 22 20 16 12 8 6 3 4 7 11 15 19 23 27 31 35 37 39 41 43 46 48 49 50 52 54 52 48 46 44 41 38 35 32
45 41 38 35 33 32 30 26 23 20 16 12 11 12 13 13 16 19 23 26 28 30 29 26 29 33 37 41 45 48 51 51 51 49 48 48 46 41 37 32 28 25 21
37 36 35 33 31 29 25 22 22 20 16 17 17 20 21 19 21 21 22 21 19 22 30 36 39 41 44 47 48 49 47 46 46 46 45 42 36 30 25 22 20 16 14
37 36 33 30 27 27 29 29 24 28 27 25 27 27 26 29 27 24 19 23 26 33 40 43 45 46 47 46 45 45 44 43 42 40 36 30 25 21 17 14 11 8 7
34 34 35 33 30 26 31 35 35 33 31 31 31 36 33 36 31 25 26 30 36 41 46 46 46 46 45 44 43 43 42 40 36 30 27 23 18 14 10 8 6 5 6
Wind_Direction
273 274 275 276 276 277 277 279 280 281 281 282 283 283 282 282 282 282 282 282 282 282 281 279 278 275 270 265 263 260 259 258 256 257 260 261 262 262 261 260 256 255 254
271 272 272 274 275 276 278 279 280 282 282 282 283 282 283 283 282 283 283 283 282 281 280 277 276 274 270 267 263 260 259 262 263 260 258 260 261 261 260 260 258 254 252
274 274 274 275 275 276 278 279 280 280 280 280 280 280 280 279 280 281 283 284 282 279 276 273 272 270 268 267 265 263 263 264 263 263 261 261 261 260 260 258 255 251 249
272 273 274 274 275 274 275 276 276 277 276 276 278 278 277 278 278 281 282 280 278 278 275 273 270 266 266 267 264 264 266 266 267 267 265 264 263 261 258 254 252 245 242
270 270 270 270 271 272 274 275 274 274 276 277 276 275 278 278 280 283 282 280 281 279 278 275 272 270 264 259 258 259 262 265 265 265 261 258 259 259 257 254 249 246 243
265 265 266 269 271 271 272 272 273 275 275 275 273 271 273 274 280 279 280 282 282 281 280 277 270 265 258 252 254 258 261 265 267 266 265 261 257 258 256 250 247 245 242
263 264 265 266 267 267 268 271 272 273 272 270 270 267 266 272 274 275 280 285 285 285 285 286 275 253 248 252 250 255 259 263 269 270 268 265 258 256 253 250 244 237 240
261 259 260 262 264 267 268 267 268 268 271 267 262 262 266 267 272 277 279 279 281 281 281 279 269 242 224 242 244 249 252 266 266 272 274 272 263 252 250 246 242 234 232
261 260 261 262 265 266 264 265 263 259 259 261 261 262 265 266 273 273 275 276 280 279 277 268 242 200 201 214 206 192 207 211 245 300 283 272 264 255 251 245 237 218 213
263 261 259 256 259 262 262 259 257 256 257 261 259 260 268 268 270 276 278 278 274 264 226 199 182 177 166 157 153 163 163 156 252 252 270 288 274 258 252 245 231 204 212
256 252 249 251 256 252 251 251 249 249 252 253 256 258 264 274 277 273 266 239 198 179 167 160 157 150 149 145 153 156 166 200 226 249 250 243 237 259 259 251 239 226 227
235 220 223 221 217 227 241 242 246 252 251 250 264 275 278 258 212 183 158 155 146 141 142 141 140 141 143 148 161 176 189 203 208 248 234 239 213 212 217 233 237 237 242
160 164 179 194 219 237 243 245 245 264 282 285 277 259 199 166 145 133 126 124 123 125 125 126 132 136 144 157 170 185 194 205 227 235 231 229 234 237 226 220 241 241 244
119 149 170 217 259 260 270 295 299 288 263 184 164 158 146 136 120 119 119 116 114 114 117 123 134 144 156 164 187 207 212 214 234 241 232 232 239 245 248 233 225 233 239
94 117 233 278 303 309 278 160 144 137 136 139 134 125 122 118 118 113 110 113 116 114 119 130 139 145 162 177 206 232 231 256 260 250 251 245 243 243 247 254 257 257 258
56 74 87 97 106 116 120 123 120 121 119 115 112 115 116 118 118 116 115 112 114 111 122 134 140 150 170 188 208 221 232 248 256 264 258 262 264 268 277 274 275 276 277
101 108 103 99 106 111 110 111 113 111 109 109 110 112 111 108 103 102 106 98 95 92 102 91 87 150 216 239 252 258 266 274 279 283 289 285 284 288 289 287 287 288 286
100 102 104 106 103 99 97 96 97 98 98 96 96 96 96 94 91 90 88 89 88 76 70 61 345 302 297 301 293 289 289 291 292 292 294 293 294 295 298 298 297 297 295
94 92 92 93 92 90 90 92 91 90 89 87 86 87 85 89 93 90 85 77 70 66 33 324 303 291 286 288 290 289 284 287 287 285 287 288 291 292 293 296 296 293 289
91 90 89 87 87 88 89 89 89 90 92 93 97 102 90 84 80 72 61 34 347 316 295 290 287 283 283 281 280 280 280 280 281 284 288 291 293 296 299 298 296 293 290
91 89 88 91 92 92 93 95 94 92 90 85 78 76 77 75 59 24 310 284 279 275 275 273 274 274 277 278 279 282 287 291 290 291 296 300 303 304 303 300 298 295 290
86 88 90 90 89 87 84 84 86 85 84 81 75 67 50 26 329 301 291 285 284 283 285 288 290 290 293 293 293 294 294 297 301 305 306 306 306 305 304 301 297 290 284
85 84 84 83 80 77 72 66 61 58 53 44 21 4 352 337 317 309 303 301 298 301 309 316 314 309 304 301 300 301 304 306 306 307 308 307 307 307 305 301 294 288 285
82 79 76 72 71 68 65 58 50 42 40 32 14 7 0 351 339 327 319 322 335 334 329 326 321 312 308 308 309 309 311 311 312 312 312 311 311 310 304 296 289 286 272
79 75 72 69 67 59 50 45 39 28 23 16 9 3 7 357 347 342 341 341 338 333 331 325 319 316 315 314 314 314 315 316 316 315 314 315 316 311 301 291 283 261 249
66 60 55 50 44 40 35 28 21 16 11 9 5 4 356 353 353 349 342 339 337 335 331 325 323 322 320 320 320 320 320 320 320 320 321 322 321 315 301 287 257 217 183
Height
10591 10591 10591 10589 10589 10588 10585 10582 10580 10579 10576 10573 10571 10567 10561 10558 10549 10544 10545 10545 10542 10536 10532 10528 10525 10526 10533 10534 10537 10539 10545 10551 10559 10561 10559 10563 10563 10571 10577 10585 10596 10605 10612
10565 10564 10563 10562 10561 10562 10561 10558 10555 10554 10551 10546 10546 10543 10539 10535 10527 10524 10525 10524 10521 10516 10513 10509 10506 10507 10511 10515 10517 10522 10526 10531 10536 10541 10542 10543 10545 10549 10555 10563 10571 10580 10590
10533 10534 10533 10533 10534 10535 10533 10531 10530 10530 10527 10524 10525 10523 10519 10514 10510 10506 10505 10503 10501 10497 10496 10495 10493 10493 10496 10498 10502 10504 10509 10514 10520 10524 10526 10527 10529 10532 10536 10542 10549 10559 10565
10504 10504 10504 10505 10507 10509 10508 10508 10506 10505 10503 10502 10503 10503 10499 10497 10492 10491 10488 10486 10484 10482 10480 10480 10480 10481 10484 10488 10488 10490 10494 10498 10503 10507 10510 10512 10512 10513 10517 10523 10529 10539 10547
10474 10478 10479 10481 10485 10486 10485 10484 10482 10480 10481 10481 10483 10482 10482 10479 10476 10475 10471 10468 10468 10466 10467 10467 10468 10472 10475 10476 10477 10479 10483 10487 10491 10494 10496 10497 10498 10499 10502 10507 10513 10521 10529
10449 10452 10455 10459 10461 10463 10462 10461 10459 10458 10461 10461 10462 10464 10465 10461 10462 10459 10456 10456 10454 10451 10452 10454 10456 10460 10461 10463 10466 10469 10474 10479 10481 10484 10485 10486 10487 10489 10491 10494 10498 10505 10513
10425 10431 10436 10438 10440 10440 10439 10440 10440 10441 10442 10443 10446 10446 10446 10448 10448 10446 10445 10443 10439 10438 10438 10441 10444 10446 10450 10453 10456 10462 10466 10470 10473 10475 10476 10477 10479 10480 10482 10483 10485 10491 10496
10405 10409 10414 10418 10420 10421 10423 10424 10425 10424 10426 10428 10429 10430 10434 10435 10435 10434 10434 10430 10427 10427 10428 10431 10432 10435 10441 10446 10452 10456 10460 10464 10466 10468 10469 10470 10471 10472 10473 10475 10477 10481 10487
10386 10392 10397 10400 10404 10406 10409 10409 10411 10413 10413 10415 10418 10421 10422 10423 10424 10423 10421 10419 10419 10419 10421 10423 10425 10430 10436 10443 10448 10453 10457 10461 10463 10465 10465 10465 10465 10466 10467 10469 10471 10474 10481
10375 10379 10384 10388 10392 10395 10397 10399 10401 10403 10406 10408 10409 10410 10413 10414 10413 10412 10412 10412 10413 10414 10416 10419 10423 10429 10435 10441 10446 10451 10456 10459 10462 10461 10462 10462 10461 10461 10462 10464 10466 10469 10475
10370 10373 10377 10382 10385 10388 10391 10394 10396 10398 10399 10400 10401 10403 10405 10406 10408 10407 10407 10407 10409 10411 10414 10419 10425 10430 10435 10441 10446 10450 10454 10457 10460 10460 10460 10460 10459 10460 10461 10463 10466 10469 10472
10368 10372 10375 10378 10381 10385 10388 10390 10391 10393 10394 10395 10396 10399 10401 10402 10402 10403 10405 10406 10408 10414 10419 10423 10427 10432 10437 10442 10445 10449 10453 10455 10457 10456 10458 10458 10458 10458 10458 10460 10462 10464 10467
10369 10372 10375 10378 10381 10383 10385 10386 10388 10388 10389 10392 10394 10396 10398 10400 10403 10405 10410 10413 10417 10420 10424 10427 10432 10437 10440 10443 10446 10449 10452 10453 10453 10453 10455 10455 10455 10455 10455 10456 10458 10459 10459
10371 10374 10376 10377 10379 10380 10381 10382 10384 10386 10388 10390 10393 10395 10400 10403 10407 10414 10416 10420 10424 10427 10430 10434 10437 10440 10443 10445 10447 10448 10450 10450 10450 10450 10449 10449 10450 10450 10450 10450 10447 10446 10447
10374 10375 10376 10378 10379 10380 10381 10383 10384 10386 10388 10391 10395 10400 10406 10411 10416 10421 10424 10428 10431 10433 10435 10438 10440 10441 10443 10445 10446 10448 10448 10447 10446 10445 10445 10444 10443 10442 10442 10442 10442 10441 10439
10376 10376 10377 10378 10379 10380 10382 10383 10387 10390 10395 10400 10405 10411 10416 10420 10424 10428 10431 10434 10436 10438 10439 10440 10442 10443 10444 10444 10444 10444 10444 10443 10440 10439 10438 10436 10436 10434 10433 10432 10431 10429 10428
10380 10380 10380 10383 10387 10391 10394 10397 10399 10404 10410 10413 10418 10423 10427 10430 10433 10436 10439 10440 10441 10442 10444 10445 10445 10445 10444 10444 10443 10442 10440 10438 10435 10432 10429 10427 10425 10424 10422 10419 10419 10417 10416
10391 10393 10396 10401 10404 10406 10409 10412 10415 10420 10424 10427 10431 10434 10437 10440 10442 10444 10445 10447 10448 10447 10447 10447 10446 10445 10443 10442 10440 10437 10434 10431 10427 10424 10420 10416 10413 10410 10407 10405 10403 10400 10399
10412 10414 10415 10417 10420 10422 10425 10428 10432 10435 10439 10441 10444 10446 10448 10451 10452 10452 10452 10452 10452 10451 10450 10448 10446 10444 10442 10439 10435 10431 10427 10422 10418 10413 10409 10405 10400 10397 10393 10389 10386 10383 10380
10430 10432 10432 10433 10436 10439 10443 10446 10448 10451 10453 10454 10456 10457 10457 10457 10456 10456 10455 10454 10453 10451 10450 10447 10444 10440 10436 10432 10427 10423 10417 10412 10406 10401 10396 10390 10385 10380 10376 10370 10366 10363 10360
10444 10446 10449 10451 10453 10455 10458 10460 10462 10463 10463 10464 10463 10462 10462 10461 10460 10459 10457 10455 10452 10450 10446 10443 10438 10433 10428 10423 10417 10411 10406 10400 10393 10387 10380 10374 10367 10361 10356 10352 10348 10345 10343
10458 10461 10464 10465 10466 10468 10468 10470 10472 10472 10471 10471 10470 10469 10467 10465 10462 10459 10455 10452 10448 10444 10440 10436 10430 10425 10418 10412 10405 10398 10391 10384 10377 10370 10363 10356 10349 10344 10340 10335 10331 10328 10326
10473 10474 10476 10477 10478 10479 10479 10480 10479 10478 10477 10476 10474 10472 10468 10464 10460 10456 10451 10447 10443 10438 10434 10428 10422 10415 10407 10399 10391 10383 10376 10369 10361 10354 10348 10341 10334 10328 10323 10320 10317 10315 10316
10487 10487 10487 10487 10488 10488 10488 10487 10486 10484 10482 10479 10475 10471 10466 10461 10456 10451 10446 10441 10436 10431 10426 10419 10411 10402 10393 10385 10377 10369 10362 10355 10348 10340 10333 10326 10321 10316 10313 10310 10309 10309 10309
10496 10496 10496 10496 10496 10495 10494 10492 10489 10486 10483 10479 10475 10470 10465 10459 10452 10446 10441 10436 10431 10424 10416 10407 10397 10388 10379 10371 10363 10356 10349 10342 10336 10328 10322 10316 10312 10308 10306 10304 10304 10305 10305
10505 10505 10505 10504 10502 10500 10497 10495 10492 10488 10484 10479 10474 10468 10462 10456 10448 10441 10435 10429 10422 10414 10404 10393 10384 10375 10366 10358 10351 10344 10337 10331 10325 10319 10313 10309 10306 10303 10300 10300 10301 10302 10303